Location: ???????
(55.3754°N, 39.3545°E)
Time: 21:54:13
(UTC+00:00)

NOSS 3-4 (C) - Pass Details

Date: 14 April 2026
Orbit: 773 x 1438 km, 63.4° (Epoch: 26 December)

Event Time Altitude Azimuth Distance (km) Brightness Sun altitude
Rises 23:38:34 0° 299° (WNW) 3,486 6.3 -19.0°
Reaches altitude 10° 23:41:00 10° 305° (NW) 2,621 5.7 -18.8°
Maximum altitude 23:46:59 51° 21° (NNE) 1,272 4.5 -18.3°
Drops below altitude 10° 23:54:01 10° 97° (E) 3,071 6.5 -17.7°
Sets 23:57:04 0° 102° (ESE) 4,137 7.2 -17.4°
